Location: Grabownica
(50.9167°N, 20.2592°E)
Time: 04:54:01
(UTC+02:00)

ISS - Visible Passes

Search period start: 26 September 2018 00:00
Search period end: 06 October 2018 00:00
Orbit: 403 x 408 km, 51.6° (Epoch: 26 September)

Date Brightness Start Highest point End Pass type
(mag) Time Alt. Az. Time Alt. Az. Time Alt. Az.
26 Sep -3.9 20:12:38 10° WSW 20:15:55 69° SSE 20:16:23 57° ESE visible
27 Sep -3.5 19:20:51 10° SW 19:24:03 49° SSE 19:26:35 15° E visible
27 Sep -2.3 20:57:12 10° W 20:59:16 35° W 20:59:16 35° W visible
28 Sep -3.9 20:05:16 10° W 20:08:34 87° NNW 20:09:23 49° ENE visible
28 Sep -0.4 21:41:50 10° W 21:42:03 11° W 21:42:03 11° W visible
29 Sep -3.8 19:13:20 10° WSW 19:16:39 77° SSE 19:19:26 14° E visible
29 Sep -2.4 20:49:54 10° W 20:52:07 39° WNW 20:52:07 39° WNW visible
30 Sep -3.8 19:57:55 10° W 20:01:14 76° N 20:02:08 44° ENE visible
30 Sep -0.5 21:34:29 10° WNW 21:34:48 12° W 21:34:48 12° W visible
01 Oct -3.8 19:05:56 10° W 19:09:15 83° N 19:12:07 13° E visible
01 Oct -2.5 20:42:31 10° W 20:44:47 41° W 20:44:47 41° W visible
02 Oct -3.8 19:50:32 10° W 19:53:51 80° N 19:54:46 44° E visible
02 Oct -0.5 21:27:06 10° W 21:27:26 12° W 21:27:26 12° W visible
03 Oct -3.7 18:58:31 10° W 19:01:50 76° N 19:04:44 13° E visible
03 Oct -2.6 20:35:04 10° WNW 20:37:24 41° W 20:37:24 41° W visible
04 Oct -3.9 19:43:04 10° WNW 19:46:23 83° SSW 19:47:23 42° ESE visible
04 Oct -0.5 21:19:47 10° W 21:20:03 12° W 21:20:03 12° W visible
05 Oct -3.8 18:51:02 10° W 18:54:21 83° N 18:57:23 12° E visible
05 Oct -2.4 20:27:37 10° W 20:30:03 34° WSW 20:30:03 34° WSW visible
